Voltar ao catálogo

FENGYUN 1C DEB

AtivoPO
NORAD 36148·DEBRIS·🇨🇳 China

Lançado May 10, 1999 de Taiyuan Satellite Launch Center

Loading…

Próximas Passagens (próximas 24 horas)

TLE

EnvelhecendoSource: Space-Track

Época: Sep 9, 2026, 18:22 UTC

1 36148U 99025DRV 26252.76539132  .00001693  00000-0  10944-2 0  9999
2 36148  98.4164  81.8362 0276625 325.2702  33.0666 13.87014988939995

Acompanhe FENGYUN 1C DEB em tempo real com AllMySat

Download on the App Store